• In Slovakia
  • List of Countries
  • For 7 days
  • Water Temperature
  • Satellite Maps
  • Weather Map
  • Weather Widgets
  • user-avatar
    Login

    Hourly Weather Norka

    Today, 21 September, Friday

    Time Temperature Precipitation Wind Pressure Humidity
    00:00 +9°C° 0 mm 0 mps 747 mmHg 94%
    01:00 +9°C° 0 mm 0 mps 748 mmHg 93%
    02:00 +9°C° 0 mm 0 mps 748 mmHg 93%
    03:00 +9°C° 0 mm 0 mps 748 mmHg 93%
    04:00 +9°C° 0 mm 0 mps 749 mmHg 92%
    05:00 +9°C° 0 mm 0 mps 749 mmHg 92%
    06:00 +9°C° 0 mm 0 mps 749 mmHg 92%
    07:00 +10°C° 0 mm 0 mps 750 mmHg 90%
    08:00 +12°C° 0 mm 1 mps 750 mmHg 89%
    09:00 +13°C° 0 mm 1 mps 751 mmHg 87%
    10:00 +14°C° 0 mm 1 mps 751 mmHg 86%
    11:00 +14°C° 0 mm 1 mps 751 mmHg 86%
    12:00 +15°C° 0 mm 2 mps 751 mmHg 85%
    13:00 +16°C° 0 mm 2 mps 751 mmHg 84%
    14:00 +17°C° 0 mm 2 mps 751 mmHg 82%
    15:00 +17°C° 0 mm 2 mps 751 mmHg 81%
    16:00 +16°C° 0 mm 2 mps 751 mmHg 84%
    17:00 +16°C° 0 mm 2 mps 751 mmHg 88%
    18:00 +15°C° 0 mm 2 mps 752 mmHg 91%
    19:00 +14°C° 0 mm 2 mps 752 mmHg 92%
    20:00 +14°C° 0 mm 2 mps 752 mmHg 93%
    21:00 +14°C° 0 mm 2 mps 752 mmHg 94%
    22:00 +14°C° 0 mm 2 mps 752 mmHg 94%
    23:00 +14°C° 0 mm 2 mps 752 mmHg 94%

    Tomorrow, 22 September, Saturday

    Time Temperature Precipitation Wind Pressure Humidity
    00:00 +13°C° 0 mm 2 mps 752 mmHg 95%
    01:00 +13°C° 0 mm 2 mps 753 mmHg 95%
    02:00 +13°C° 0 mm 2 mps 753 mmHg 95%
    03:00 +13°C° 0 mm 2 mps 753 mmHg 95%
    04:00 +13°C° 0 mm 2 mps 753 mmHg 96%
    05:00 +13°C° 0 mm 2 mps 753 mmHg 96%
    06:00 +13°C° 0 mm 2 mps 753 mmHg 96%
    07:00 +15°C° 0 mm 2 mps 753 mmHg 92%
    08:00 +16°C° 0 mm 2 mps 753 mmHg 88%
    09:00 +18°C° 0 mm 2 mps 753 mmHg 83%
    10:00 +19°C° 0 mm 2 mps 753 mmHg 77%
    11:00 +21°C° 0 mm 3 mps 753 mmHg 71%
    12:00 +22°C° 0 mm 3 mps 753 mmHg 66%
    13:00 +24°C° 0.1 mm 3 mps 753 mmHg 65%
    14:00 +24°C° 0.1 mm 3 mps 753 mmHg 64%
    15:00 +24°C° 0.1 mm 3 mps 753 mmHg 63%
    16:00 +23°C° 0 mm 2 mps 752 mmHg 69%
    17:00 +20°C° 0 mm 2 mps 752 mmHg 76%
    18:00 +18°C° 0 mm 2 mps 752 mmHg 82%
    19:00 +18°C° 0 mm 2 mps 752 mmHg 85%
    20:00 +17°C° 0 mm 2 mps 752 mmHg 87%
    21:00 +16°C° 0 mm 2 mps 752 mmHg 90%
    22:00 +16°C° 0 mm 2 mps 752 mmHg 91%
    23:00 +15°C° 0 mm 2 mps 752 mmHg 92%

    Day after tomorrow, 23 September, Sunday

    Time Temperature Precipitation Wind Pressure Humidity
    00:00 +15°C° 0 mm 2 mps 752 mmHg 93%
    01:00 +14°C° 0 mm 3 mps 752 mmHg 93%
    02:00 +13°C° 0 mm 3 mps 752 mmHg 94%
    03:00 +13°C° 0 mm 3 mps 752 mmHg 94%
    04:00 +13°C° 0 mm 3 mps 752 mmHg 94%
    05:00 +13°C° 0 mm 3 mps 752 mmHg 95%
    06:00 +13°C° 0 mm 3 mps 752 mmHg 95%
    07:00 +14°C° 0 mm 3 mps 751 mmHg 88%
    08:00 +17°C° 0 mm 4 mps 751 mmHg 81%
    09:00 +19°C° 0 mm 4 mps 751 mmHg 74%
    10:00 +20°C° 0 mm 5 mps 751 mmHg 68%
    11:00 +21°C° 0 mm 5 mps 751 mmHg 62%
    12:00 +23°C° 0 mm 6 mps 750 mmHg 56%
    13:00 +23°C° 0 mm 6 mps 750 mmHg 56%
    14:00 +23°C° 0 mm 6 mps 749 mmHg 56%
    15:00 +23°C° 0 mm 6 mps 749 mmHg 56%
    16:00 +21°C° 0 mm 5 mps 749 mmHg 61%
    17:00 +20°C° 0 mm 5 mps 749 mmHg 65%
    18:00 +18°C° 0 mm 4 mps 748 mmHg 70%
    19:00 +17°C° 0 mm 5 mps 748 mmHg 72%
    20:00 +17°C° 0 mm 5 mps 748 mmHg 73%
    21:00 +16°C° 0 mm 5 mps 748 mmHg 74%
    22:00 +16°C° 0 mm 5 mps 747 mmHg 74%
    23:00 +16°C° 0 mm 5 mps 747 mmHg 73%

    24 September, Monday

    Time Temperature Precipitation Wind Pressure Humidity
    00:00 +15°C° 0 mm 5 mps 746 mmHg 73%
    01:00 +15°C° 0 mm 5 mps 746 mmHg 71%
    02:00 +14°C° 0 mm 5 mps 746 mmHg 68%
    03:00 +14°C° 0 mm 5 mps 745 mmHg 66%
    04:00 +13°C° 0 mm 5 mps 745 mmHg 65%
    05:00 +13°C° 0 mm 5 mps 745 mmHg 64%
    06:00 +13°C° 0 mm 5 mps 745 mmHg 63%
    07:00 +14°C° 0 mm 5 mps 745 mmHg 59%
    08:00 +15°C° 0 mm 6 mps 745 mmHg 56%
    09:00 +16°C° 0 mm 6 mps 745 mmHg 52%
    10:00 +17°C° 0 mm 6 mps 745 mmHg 50%
    11:00 +19°C° 0 mm 6 mps 745 mmHg 48%
    12:00 +20°C° 0 mm 6 mps 745 mmHg 46%
    13:00 +20°C° 0 mm 6 mps 745 mmHg 49%
    14:00 +19°C° 0 mm 6 mps 746 mmHg 51%
    15:00 +19°C° 0 mm 5 mps 746 mmHg 54%
    16:00 +17°C° 0.1 mm 4 mps 746 mmHg 63%
    17:00 +14°C° 0.1 mm 4 mps 747 mmHg 72%
    18:00 +12°C° 0.1 mm 3 mps 747 mmHg 81%
    19:00 +12°C° 0.1 mm 2 mps 747 mmHg 83%
    20:00 +12°C° 0.1 mm 2 mps 747 mmHg 85%
    21:00 +10°C° 0.1 mm 2 mps 748 mmHg 87%
    22:00 +10°C° 0 mm 2 mps 748 mmHg 87%
    23:00 +10°C° 0 mm 2 mps 748 mmHg 88%

    25 September, Tuesday

    Time Temperature Precipitation Wind Pressure Humidity
    00:00 +10°C° 0 mm 2 mps 748 mmHg 89%
    01:00 +10°C° 0.1 mm 2 mps 748 mmHg 88%
    02:00 +10°C° 0.1 mm 2 mps 747 mmHg 88%
    03:00 +10°C° 0.1 mm 3 mps 747 mmHg 88%
    04:00 +11°C° 0 mm 3 mps 747 mmHg 87%
    05:00 +11°C° 0 mm 3 mps 747 mmHg 86%
    06:00 +11°C° 0 mm 3 mps 746 mmHg 85%
    07:00 +12°C° 0 mm 4 mps 746 mmHg 82%
    08:00 +13°C° 0 mm 5 mps 745 mmHg 78%
    09:00 +15°C° 0 mm 6 mps 745 mmHg 74%
    10:00 +16°C° 0 mm 6 mps 745 mmHg 71%
    11:00 +17°C° 0 mm 6 mps 745 mmHg 68%
    12:00 +18°C° 0 mm 7 mps 745 mmHg 65%
    13:00 +17°C° 0 mm 7 mps 745 mmHg 66%
    14:00 +17°C° 0 mm 6 mps 745 mmHg 67%
    15:00 +17°C° 0 mm 6 mps 745 mmHg 68%
    16:00 +16°C° 0.1 mm 6 mps 745 mmHg 71%
    17:00 +15°C° 0.1 mm 5 mps 744 mmHg 73%
    18:00 +14°C° 0.1 mm 5 mps 744 mmHg 75%
    19:00 +14°C° 0 mm 5 mps 744 mmHg 73%
    20:00 +14°C° 0 mm 5 mps 744 mmHg 71%
    21:00 +13°C° 0 mm 5 mps 744 mmHg 69%
    22:00 +13°C° 0.1 mm 6 mps 744 mmHg 70%
    23:00 +13°C° 0.1 mm 6 mps 744 mmHg 71%

    26 September, Wednesday

    Time Temperature Precipitation Wind Pressure Humidity
    00:00 +13°C° 0.1 mm 6 mps 744 mmHg 72%
    01:00 +11°C° 1 mm 6 mps 743 mmHg 77%
    02:00 +10°C° 1 mm 6 mps 743 mmHg 82%
    03:00 +10°C° 1 mm 6 mps 743 mmHg 87%
    04:00 +10°C° 0.6 mm 7 mps 743 mmHg 87%
    05:00 +9°C° 0.6 mm 7 mps 743 mmHg 87%
    06:00 +9°C° 0.6 mm 7 mps 743 mmHg 87%
    07:00 +10°C° 0.4 mm 7 mps 743 mmHg 86%
    08:00 +10°C° 0.4 mm 7 mps 743 mmHg 85%
    09:00 +10°C° 0.4 mm 7 mps 743 mmHg 84%
    10:00 +10°C° 0.1 mm 7 mps 743 mmHg 78%
    11:00 +11°C° 0.1 mm 8 mps 744 mmHg 73%
    12:00 +12°C° 0.1 mm 8 mps 744 mmHg 67%
    13:00 +11°C° 0.1 mm 7 mps 744 mmHg 66%
    14:00 +10°C° 0.1 mm 7 mps 744 mmHg 66%
    15:00 +10°C° 0.1 mm 7 mps 745 mmHg 65%
    16:00 +9°C° 0 mm 7 mps 745 mmHg 68%
    17:00 +9°C° 0 mm 7 mps 746 mmHg 70%
    18:00 +8°C° 0 mm 7 mps 746 mmHg 72%
    19:00 +8°C° 0 mm 7 mps 746 mmHg 74%
    20:00 +8°C° 0 mm 6 mps 747 mmHg 76%
    21:00 +8°C° 0 mm 6 mps 747 mmHg 78%
    22:00 +8°C° 0 mm 6 mps 747 mmHg 78%
    23:00 +8°C° 0 mm 6 mps 748 mmHg 78%
    Show more